When you browse on this site, cookies collect data to enhance your experience and personalize the content and advertising you see.
Visit our Privacy Policy to learn more. By continuing to use the site, you agree to this use of cookies and data.
  • In United Kingdom
  • List of Countries
  • For 7 days
  • Water Temperature
  • Satellite Maps
  • Weather Map
  • Weather Widgets
  • user-avatar
    Login

    Hourly Weather Aberdeen

    Today, 17 February, Sunday

    Time Temperature Precipitation Wind Pressure Humidity
    00:00 +7°C° 0 mm 4 mps 748 mmHg 91%
    01:00 +7°C° 0 mm 4 mps 748 mmHg 90%
    02:00 +7°C° 0 mm 4 mps 747 mmHg 89%
    03:00 +8°C° 0 mm 4 mps 747 mmHg 88%
    04:00 +8°C° 0 mm 5 mps 747 mmHg 88%
    05:00 +7°C° 0 mm 5 mps 746 mmHg 88%
    06:00 +7°C° 0 mm 5 mps 746 mmHg 88%
    07:00 +7°C° 0 mm 5 mps 746 mmHg 87%
    08:00 +7°C° 0 mm 5 mps 745 mmHg 85%
    09:00 +7°C° 0 mm 5 mps 745 mmHg 84%
    10:00 +8°C° 0 mm 6 mps 745 mmHg 80%
    11:00 +9°C° 0 mm 7 mps 744 mmHg 76%
    12:00 +10°C° 0 mm 8 mps 744 mmHg 71%
    13:00 +10°C° 0.2 mm 7 mps 744 mmHg 75%
    14:00 +9°C° 0.2 mm 6 mps 744 mmHg 79%
    15:00 +8°C° 0.2 mm 6 mps 744 mmHg 83%
    16:00 +8°C° 0 mm 5 mps 744 mmHg 83%
    17:00 +7°C° 0 mm 5 mps 744 mmHg 83%
    18:00 +6°C° 0 mm 5 mps 744 mmHg 83%
    19:00 +6°C° 0 mm 5 mps 744 mmHg 84%
    20:00 +5°C° 0 mm 5 mps 744 mmHg 85%
    21:00 +5°C° 0 mm 5 mps 744 mmHg 86%
    22:00 +5°C° 0 mm 5 mps 744 mmHg 85%
    23:00 +6°C° 0 mm 5 mps 744 mmHg 85%

    Tomorrow, 18 February, Monday

    Time Temperature Precipitation Wind Pressure Humidity
    00:00 +6°C° 0 mm 5 mps 744 mmHg 84%
    01:00 +5°C° 0 mm 6 mps 743 mmHg 84%
    02:00 +4°C° 0 mm 6 mps 743 mmHg 84%
    03:00 +4°C° 0 mm 7 mps 743 mmHg 84%
    04:00 +4°C° 0 mm 7 mps 743 mmHg 83%
    05:00 +4°C° 0 mm 7 mps 742 mmHg 81%
    06:00 +4°C° 0 mm 7 mps 742 mmHg 79%
    07:00 +4°C° 0 mm 8 mps 742 mmHg 79%
    08:00 +4°C° 0 mm 8 mps 742 mmHg 78%
    09:00 +4°C° 0 mm 8 mps 742 mmHg 78%
    10:00 +5°C° 0 mm 9 mps 742 mmHg 76%
    11:00 +5°C° 0 mm 10 mps 742 mmHg 73%
    12:00 +6°C° 0 mm 10 mps 742 mmHg 71%
    13:00 +6°C° 0 mm 10 mps 742 mmHg 70%
    14:00 +6°C° 0 mm 10 mps 742 mmHg 69%
    15:00 +6°C° 0 mm 10 mps 742 mmHg 68%
    16:00 +6°C° 0 mm 9 mps 743 mmHg 73%
    17:00 +5°C° 0 mm 8 mps 743 mmHg 77%
    18:00 +4°C° 0 mm 7 mps 743 mmHg 81%
    19:00 +4°C° 0 mm 6 mps 744 mmHg 83%
    20:00 +4°C° 0 mm 6 mps 744 mmHg 85%
    21:00 +3°C° 0 mm 5 mps 745 mmHg 87%
    22:00 +3°C° 0 mm 5 mps 745 mmHg 86%
    23:00 +3°C° 0 mm 5 mps 746 mmHg 86%

    Day after tomorrow, 19 February, Tuesday

    Time Temperature Precipitation Wind Pressure Humidity
    00:00 +3°C° 0 mm 5 mps 746 mmHg 86%
    01:00 +3°C° 0 mm 5 mps 747 mmHg 87%
    02:00 +3°C° 0 mm 5 mps 747 mmHg 88%
    03:00 +2°C° 0 mm 5 mps 747 mmHg 89%
    04:00 +2°C° 0 mm 5 mps 748 mmHg 89%
    05:00 +2°C° 0 mm 5 mps 748 mmHg 89%
    06:00 +1°C° 0 mm 5 mps 748 mmHg 90%
    07:00 +1°C° 0 mm 5 mps 748 mmHg 88%
    08:00 +2°C° 0 mm 5 mps 749 mmHg 86%
    09:00 +2°C° 0 mm 5 mps 749 mmHg 84%
    10:00 +3°C° 0 mm 5 mps 749 mmHg 79%
    11:00 +5°C° 0 mm 5 mps 750 mmHg 73%
    12:00 +6°C° 0 mm 5 mps 750 mmHg 67%
    13:00 +6°C° 0 mm 5 mps 750 mmHg 69%
    14:00 +6°C° 0 mm 5 mps 749 mmHg 71%
    15:00 +6°C° 0 mm 5 mps 749 mmHg 72%
    16:00 +5°C° 0.3 mm 4 mps 749 mmHg 77%
    17:00 +5°C° 0.3 mm 4 mps 749 mmHg 82%
    18:00 +4°C° 0.3 mm 4 mps 748 mmHg 87%
    19:00 +4°C° 0.3 mm 4 mps 748 mmHg 89%
    20:00 +5°C° 0.3 mm 4 mps 747 mmHg 90%
    21:00 +5°C° 0.3 mm 4 mps 747 mmHg 92%
    22:00 +5°C° 0.1 mm 4 mps 746 mmHg 92%
    23:00 +5°C° 0.1 mm 4 mps 746 mmHg 93%

    20 February, Wednesday

    Time Temperature Precipitation Wind Pressure Humidity
    00:00 +6°C° 0.1 mm 4 mps 746 mmHg 93%
    01:00 +6°C° 0.2 mm 4 mps 745 mmHg 93%
    02:00 +6°C° 0.2 mm 5 mps 745 mmHg 93%
    03:00 +7°C° 0.2 mm 5 mps 745 mmHg 93%
    04:00 +7°C° 0.1 mm 5 mps 744 mmHg 92%
    05:00 +7°C° 0.1 mm 6 mps 744 mmHg 91%
    06:00 +7°C° 0.1 mm 6 mps 744 mmHg 90%
    07:00 +8°C° 0.3 mm 6 mps 744 mmHg 90%
    08:00 +8°C° 0.3 mm 6 mps 743 mmHg 89%
    09:00 +8°C° 0.3 mm 6 mps 743 mmHg 89%
    10:00 +8°C° 0.7 mm 6 mps 743 mmHg 88%
    11:00 +8°C° 0.7 mm 7 mps 744 mmHg 88%
    12:00 +9°C° 0.7 mm 7 mps 744 mmHg 87%
    13:00 +9°C° 0 mm 7 mps 745 mmHg 82%
    14:00 +10°C° 0 mm 8 mps 745 mmHg 76%
    15:00 +10°C° 0 mm 8 mps 746 mmHg 71%
    16:00 +9°C° 0 mm 7 mps 747 mmHg 75%
    17:00 +8°C° 0 mm 6 mps 748 mmHg 78%
    18:00 +7°C° 0 mm 5 mps 749 mmHg 82%
    19:00 +6°C° 0 mm 5 mps 750 mmHg 84%
    20:00 +5°C° 0 mm 5 mps 750 mmHg 87%
    21:00 +5°C° 0 mm 4 mps 751 mmHg 89%
    22:00 +4°C° 0 mm 4 mps 752 mmHg 90%
    23:00 +4°C° 0 mm 4 mps 752 mmHg 91%

    21 February, Thursday

    Time Temperature Precipitation Wind Pressure Humidity
    00:00 +3°C° 0 mm 4 mps 753 mmHg 92%
    01:00 +3°C° 0 mm 3 mps 753 mmHg 92%
    02:00 +3°C° 0 mm 3 mps 753 mmHg 92%
    03:00 +4°C° 0 mm 2 mps 754 mmHg 92%
    04:00 +4°C° 0 mm 2 mps 754 mmHg 91%
    05:00 +5°C° 0 mm 2 mps 754 mmHg 91%
    06:00 +5°C° 0 mm 2 mps 755 mmHg 91%
    07:00 +7°C° 0 mm 1 mps 755 mmHg 92%
    08:00 +7°C° 0 mm 1 mps 755 mmHg 93%
    09:00 +8°C° 0 mm 1 mps 756 mmHg 94%
    10:00 +8°C° 0 mm 3 mps 756 mmHg 90%
    11:00 +8°C° 0 mm 4 mps 757 mmHg 87%
    12:00 +10°C° 0 mm 5 mps 757 mmHg 83%
    13:00 +10°C° 0 mm 5 mps 757 mmHg 82%
    14:00 +10°C° 0 mm 5 mps 757 mmHg 80%
    15:00 +10°C° 0 mm 6 mps 757 mmHg 78%
    16:00 +9°C° 0 mm 5 mps 757 mmHg 81%
    17:00 +8°C° 0 mm 4 mps 758 mmHg 84%
    18:00 +7°C° 0 mm 4 mps 758 mmHg 87%
    19:00 +8°C° 0 mm 3 mps 758 mmHg 88%
    20:00 +8°C° 0 mm 3 mps 758 mmHg 89%
    21:00 +8°C° 0 mm 3 mps 759 mmHg 91%
    22:00 +8°C° 0 mm 3 mps 759 mmHg 91%
    23:00 +7°C° 0 mm 3 mps 759 mmHg 92%

    22 February, Friday

    Time Temperature Precipitation Wind Pressure Humidity
    00:00 +7°C° 0 mm 3 mps 759 mmHg 93%
    01:00 +7°C° 0 mm 3 mps 759 mmHg 93%
    02:00 +6°C° 0 mm 2 mps 759 mmHg 93%
    03:00 +6°C° 0 mm 2 mps 759 mmHg 93%
    04:00 +5°C° 0 mm 3 mps 759 mmHg 92%
    05:00 +7°C° 0 mm 3 mps 759 mmHg 91%
    06:00 +7°C° 0 mm 3 mps 759 mmHg 90%
    07:00 +7°C° 0 mm 3 mps 760 mmHg 88%
    08:00 +8°C° 0 mm 3 mps 760 mmHg 86%
    09:00 +8°C° 0 mm 3 mps 760 mmHg 84%
    10:00 +10°C° 0 mm 4 mps 760 mmHg 77%
    11:00 +12°C° 0 mm 5 mps 761 mmHg 70%
    12:00 +13°C° 0 mm 6 mps 761 mmHg 63%
    13:00 +14°C° 0 mm 6 mps 761 mmHg 62%
    14:00 +14°C° 0 mm 5 mps 760 mmHg 62%
    15:00 +14°C° 0 mm 5 mps 760 mmHg 61%
    16:00 +12°C° 0 mm 5 mps 760 mmHg 67%
    17:00 +11°C° 0 mm 4 mps 760 mmHg 72%
    18:00 +8°C° 0 mm 4 mps 760 mmHg 78%
    19:00 +8°C° 0 mm 4 mps 760 mmHg 80%
    20:00 +8°C° 0 mm 3 mps 760 mmHg 82%
    21:00 +8°C° 0 mm 3 mps 761 mmHg 84%
    22:00 +8°C° 0 mm 3 mps 760 mmHg 85%
    23:00 +7°C° 0 mm 3 mps 760 mmHg 86%
    Show more